Regional Weather Roundup
Issued by NWS

Home | Current Version | Previous Version | Graphics & Text | Print | Product List | Glossary On
Versions: 1 2 3 4 5 6 7 8 9 10 11 12 13 14 15 16 17 18 19 20 21 22 23 24 25 26 27 28 29 30 31 32 33 34 35 36 37 38 39 40 41 42 43 44 45 46 47 48 49 50
000
ASUS43 KTOP 160259
RWRKS

WEATHER ROUNDUP FOR KANSAS
NATIONAL WEATHER SERVICE GOODLAND KS
1000 PM CDT TUE APR 15 2014

NOTE:  "FAIR" INDICATES FEW OR NO CLOUDS BELOW 12,000 FEET WITH NO
SIGNIFICANT WEATHER AND/OR OBSTRUCTIONS TO VISIBILITY.

KSZ001>006-013>018-027>032-041>047-160400-
NORTHWEST KANSAS

CITY           SKY/WX    TMP DP  RH WIND       PRES   REMARKS
GOODLAND       PTCLDY    44  25  47 S14       29.73R
HAYS           MOCLDY    52  21  30 SE14      29.81S
HILL CITY      PTCLDY    56  22  26 S15       29.76S
RUSSELL        MOCLDY    54  21  27 S18       29.81R
$$

KSZ061>065-074>080-084>089-160400-
SOUTHWEST KANSAS

CITY           SKY/WX    TMP DP  RH WIND       PRES   REMARKS
DODGE CITY     MOCLDY    53  17  24 S22G29    29.83R
ELKHART          N/A     49  24  37 S9          N/A
GARDEN CITY    CLOUDY    54  23  30 S14       29.78S
GREAT BEND     MOCLDY    55  19  24 S21       29.84R
LIBERAL        PTCLDY    55  18  22 S18       29.82S
$$

KSZ066>073-081>083-090>101-160400-
SOUTHEAST KANSAS

CITY           SKY/WX    TMP DP  RH WIND       PRES   REMARKS
CHANUTE        CLOUDY    49  29  46 SE13      30.06R
COFFEYVILLE    MOCLDY    50  28  42 SE10      30.07R
HUTCHINSON     PTCLDY    54  15  21 S17       29.91S
MEDICINE LODGE   N/A     56  21  25 S12G23    29.91R
NEWTON         PTCLDY    52  16  24 S13       29.97S
PARSONS        MOCLDY    51  27  39 SE6       30.08R
WICHITA INTL   PTCLDY    53  17  24 S17G28    29.95R
WICHITA JABRA  PTCLDY    52  19  27 S16       29.96R
WINFIELD       PTCLDY    49  22  34 SE9       30.01R
$$

KSZ007>012-019>026-033>040-048>060-102>105-160400-
NORTHEAST KANSAS

CITY           SKY/WX    TMP DP  RH WIND       PRES   REMARKS
CONCORDIA      CLOUDY    54  19  25 S20G28    29.85R
EMPORIA        PTCLDY    48  25  40 SE12      29.99R
LAWRENCE       PTCLDY    48  31  51 SE12      30.02R
MANHATTAN      MOCLDY    52  22  30 S12       29.93R
OLATHE IND     PTCLDY    46  29  51 SE12      30.04S
OLATHE EXE     PTCLDY    46  28  49 S13       30.03S
SALINA         MOCLDY    54  17  23 S17       29.89S
TOPEKA BILLARD PTCLDY    51  29  42 S16       30.00R
TOPEKA FORBES  PTCLDY    48  29  47 SE15      29.99R
$$



USA.gov is the U.S. government's official web portal to all federal, state and local government web resources and services.